Location: *
(60.1759°S, 155.0663°W)
Time: 06:15:06
(UTC+00:00)

Daily predictions for brighter satellites

Satellite Brightness Start Highest point End
(mag) Time Altitude Azimuth Time Altitude Azimuth Time Altitude Azimuth
ERS-2 3.9 12:04:56 10° SSE 12:07:09 33° SSE 12:07:09 33° SSE
RESURS DK-1 3.5 12:11:40 43° SE 12:11:40 43° SE 12:14:36 10° SE
Cosmos 1656 4.1 12:05:03 10° SW 12:10:35 60° SE 12:16:10 10° ENE
Cosmos 2237 Rocket 3.3 12:09:36 33° WSW 12:11:01 38° SSW 12:16:22 10° SE
ADEOS II 2.7 12:13:20 45° SW 12:13:20 45° SW 12:17:21 10° SSW
Terra 4.1 12:09:44 10° S 12:12:25 15° SW 12:13:22 14° SW
Cosmos 968 Rocket 3.9 12:15:37 55° ENE 12:15:37 55° ENE 12:20:47 10° SE
Cosmos 1867 3.7 12:13:11 28° SW 12:16:04 73° SSE 12:21:31 10° ENE
Cosmos 1238 Rocket 3.9 12:15:34 72° NNW 12:16:21 90° WNW 12:22:31 10° SSE
CZ-4C R/B 4.3 12:12:06 10° SSE 12:15:32 49° SE 12:15:32 49° SE
USA 229 DEB 3.6 12:09:44 10° WSW 12:16:59 87° NNW 12:23:48 10° ENE
USA 229 3.6 12:09:49 10° WSW 12:17:03 87° NNW 12:23:52 10° ENE
Cosmos 1825 3.6 12:19:09 37° SSE 12:19:09 37° SSE 12:21:38 10° SSE
Cosmos 1707 Rocket 4.1 12:15:00 10° S 12:19:01 61° SSE 12:19:01 61° SSE
Cosmos 1464 Rocket 4.1 12:18:21 55° NNE 12:19:39 70° E 12:25:56 10° SSE
Resurs 1-4 Rocket 3.9 12:24:25 20° WSW 12:24:25 20° WSW 12:26:54 10° SW
NOSS 3-1 (A) 3.6 12:15:22 10° WSW 12:22:46 82° SSE 12:28:58 10° ENE
Cosmos 1782 4.1 12:18:40 10° SSW 12:21:13 36° S 12:21:13 36° S
Cosmos 1892 4.4 12:25:14 28° SSW 12:25:14 28° SSW 12:27:25 10° S
NOSS 3-4 (A) 3.9 12:22:32 53° WNW 12:24:40 89° SSW 12:32:07 10° ESE
NOSS 3-4 (C) 3.9 12:22:38 54° WNW 12:24:46 89° SSW 12:32:13 10° ESE
ALOS 2 4.1 12:22:19 10° S 12:25:34 29° SW 12:25:34 29° SW
In-Cosmos 22 Rocket 4.4 12:26:32 54° WSW 12:26:33 54° WSW 12:32:10 10° SSE
Cosmos 1743 Rocket 4.0 12:28:03 60° SSE 12:28:03 60° SSE 12:31:44 10° SSE
Sich 1 4.1 12:30:58 37° ENE 12:31:21 38° E 12:35:25 10° SSE
Cosmos 2322 Rocket 3.9 12:26:40 10° SW 12:31:48 31° SSE 12:36:55 10° ESE
Cosmos 909 Rocket 4.2 12:31:37 57° N 12:32:50 68° NE 12:39:07 10° SE
Cosmos 1408 4.1 12:34:30 34° S 12:34:30 34° S 12:36:49 10° S
GEOS 3 Rocket 4.2 12:28:06 10° ESE 12:33:19 54° S 12:35:10 37° WSW
Meteor 2-6 Rocket 4.1 12:27:59 10° SSW 12:33:32 80° ESE 12:34:46 55° NNE
Cosmos 1812 4.2 12:30:01 10° S 12:33:43 36° ESE 12:34:48 30° E
Cosmos 1697 Rocket 3.2 12:28:23 10° SW 12:34:01 59° SE 12:39:39 10° ENE
Cosmos 1603 3.6 12:33:48 73° WNW 12:34:22 82° SW 12:40:13 10° SE
Cosmos 1400 Rocket 3.7 12:30:25 10° SSW 12:33:34 48° S 12:33:34 48° S
Cosmos 2034 Rocket 4.2 12:33:28 45° NNE 12:35:24 68° E 12:41:47 10° SSE
Meteor 1-27 Rocket 4.4 12:30:01 10° SSW 12:35:50 57° ESE 12:41:42 10° NE
Meteor 2-3 Rocket 3.9 12:35:40 56° NNE 12:36:51 73° ENE 12:42:46 10° SSE
Cosmos 1805 Rocket 4.0 12:39:41 57° ENE 12:39:45 57° E 12:44:07 10° SSE
SL-16 R/B 2.9 12:38:28 39° WSW 12:39:47 45° SSW 12:45:19 10° SE
Meteor 1-10 Rocket 4.2 12:37:10 10° SSW 12:42:53 84° ESE 12:44:49 44° NNE
SL-16 R/B 3.4 12:40:23 10° SSE 12:46:23 44° E 12:49:58 23° NNE
Genesis I 4.1 12:46:49 44° S 12:46:54 44° S 12:50:40 10° E
MSX 4.0 12:42:51 17° NNE 12:47:26 72° ESE 12:53:16 10° SSW
Cosmos 2369 4.0 12:41:40 10° SW 12:47:30 71° SE 12:53:16 10° NE
COSMOS 2428 4.4 12:45:10 12° WSW 12:49:39 29° S 12:54:41 10° SE
Cosmos 2219 Rocket 3.9 12:46:39 12° WSW 12:51:04 29° S 12:56:02 10° SE
DELTA 2 DEB (DPAF) 4.3 12:47:40 10° SSE 12:51:58 63° SW 12:51:58 63° SW
Cosmos 1354 Rocket 3.9 12:52:01 69° NNW 12:52:40 84° ENE 12:58:03 10° SSE
CZ-2D R/B 4.2 12:54:59 14° WSW 12:54:59 14° WSW 12:56:24 10° SW
Cosmos 1633 4.0 12:53:44 31° ENE 12:54:10 32° E 12:57:32 10° SSE
NOSS 3-1 (C) 3.4 12:50:25 10° WSW 12:57:30 72° NW 13:03:28 10° NE
Cosmos 2112 Rocket 4.1 12:52:27 10° SSW 12:57:55 78° SE 13:03:21 10° NE
ADEOS 3.5 13:00:14 63° NW 13:00:46 68° WNW 13:06:07 10° SSW
Cosmos 1092 Rocket 3.9 12:54:27 10° SSW 13:00:52 78° W 13:03:26 39° N
Cosmos 2360 Rocket 3.9 12:58:14 10° SW 13:03:18 30° SSE 13:08:20 10° ESE
Geosat 3.9 12:59:44 10° SE 13:04:53 84° SW 13:05:45 62° NW
ATLAS 2AS CENTAUR R/B 2.6 13:03:18 37° W 13:05:51 68° S 13:12:17 10° ESE
H-2A R/B 2.4 13:07:25 79° W 13:07:25 79° W 13:11:49 10° SSW
Cosmos 1980 Rocket 2.7 13:04:13 10° SW 13:09:55 61° SE 13:15:33 10° ENE
Cosmos 2242 Rocket 4.0 13:05:26 10° S 13:10:06 68° ESE 13:13:10 21° NNE
Cosmos 1666 Rocket 3.9 13:09:25 46° NNE 13:10:33 63° E 13:15:06 10° SSE
H-2A R/B 2.9 13:06:36 10° SSE 13:10:57 47° E 13:12:29 33° NNE
Cosmos 1486 Rocket 4.4 13:10:56 46° W 13:11:57 53° SW 13:17:17 10° SSE
ARIANE 5 R/B 4.2 13:16:21 19° WSW 13:16:21 19° WSW 13:18:34 10° SW
Cosmos 1500 Rocket 4.1 13:14:48 45° WSW 13:14:48 45° WSW 13:19:07 10° S
ALOS 4.4 13:12:52 10° ENE 13:16:52 28° SE 13:20:54 10° S
UNK 4.0 13:12:16 10° SSE 13:17:00 68° ENE 13:18:31 42° N
IRIDIUM 104 4.4 13:14:27 10° SSW 13:19:39 54° W 13:20:18 51° WNW
Okean O Rocket 3.4 13:18:30 10° ENE 13:22:31 33° ESE 13:26:32 10° S
Cosmos 1627 Rocket 4.4 13:16:22 10° SSW 13:22:34 73° W 13:26:21 25° N
Nadezhda 4 Rocket 4.4 13:16:37 10° SSW 13:22:40 45° W 13:23:48 41° WNW
SL-16 R/B 3.5 13:17:26 10° SW 13:22:54 42° SSE 13:28:20 10° E
CZ-2C R/B 2.6 13:18:37 10° NNE 13:23:54 81° ESE 13:29:08 10° SSW
Helios 1A Rocket 4.3 13:22:08 10° NE 13:26:06 41° ESE 13:30:07 10° S
Cosmos 923 Rocket 4.0 13:21:03 10° SW 13:26:17 57° WNW 13:28:40 31° N
Iridium 4 Rocket 4.0 13:20:34 10° S 13:26:37 75° E 13:32:24 10° NNE
Cosmos 1680 Rocket 3.4 13:21:25 10° SW 13:26:48 68° WNW 13:32:08 10° NNE
Cosmos 1862 Rocket 3.4 13:22:47 10° SSW 13:27:13 70° W 13:27:54 59° NNW
MOZ.5/SAFIR/RUBIN 5/SL-8 3.8 13:23:11 10° SSE 13:28:06 84° ENE 13:29:51 41° NNW
PSLV R/B 4.0 13:30:17 43° WSW 13:30:17 43° WSW 13:33:47 10° SSW
Cosmos 2278 3.6 13:26:39 10° SW 13:32:29 88° NW 13:38:14 10° NE
PAYLOAD A 3.8 13:29:14 21° N 13:32:39 77° WNW 13:37:52 10° SSW
Cosmos 1862 3.5 13:32:06 45° N 13:33:14 72° E 13:37:19 10° SSE
CZ-4B R/B 4.0 13:31:38 10° SE 13:34:06 19° E 13:36:34 10° NE
Cosmos 1470 Rocket 4.2 13:33:17 23° NNE 13:35:56 55° E 13:40:24 10° SSE
Cosmos 1503 Rocket 4.3 13:34:55 41° W 13:36:24 56° SW 13:41:41 10° SSE
Lacrosse 4 Rocket 2.7 13:34:33 10° SW 13:38:53 44° SSE 13:43:14 10° E
Cosmos 2285 Rocket 4.4 13:36:35 33° W 13:39:10 50° SW 13:45:26 10° SSE
PSLV R/B 4.1 13:37:54 10° NNE 13:41:39 64° ESE 13:45:27 10° SSW
ERS-2 3.7 13:38:58 10° S 13:41:47 23° SW 13:41:47 23° SW
IDEFIX/ARIANE 42P 2.9 13:41:03 40° NW 13:42:04 45° W 13:47:11 10° SSW
Cosmos 2333 Rocket 3.9 13:38:48 10° SW 13:43:55 30° S 13:49:00 10° ESE
Cosmos 1943 3.6 13:42:17 33° W 13:44:31 51° SW 13:50:05 10° SE
Cosmos 2360 4.2 13:41:04 10° SW 13:46:55 86° NW 13:52:41 10° NE
RESURS DK-1 3.6 13:47:33 27° WSW 13:48:50 32° SSW 13:52:42 10° SE
Cosmos 2279 Rocket 4.3 13:43:42 10° N 13:49:53 67° E 13:56:09 10° SSE
Meteor 1-31 Rocket 2.6 13:47:42 23° N 13:50:02 78° WNW 13:53:57 10° SSW
Cosmos 1315 Rocket 3.0 13:46:48 10° SSW 13:50:43 48° W 13:50:46 48° W
COSMOS 2455 3.7 13:45:21 10° WSW 13:51:14 48° SSE 13:57:05 10° E
Okean 1-7 3.2 13:47:02 10° SSW 13:51:28 76° ESE 13:55:54 10° NNE
ADEOS II 4.0 13:54:15 13° WSW 13:54:15 13° WSW 13:55:47 10° SW
Cosmos 1825 4.0 13:53:58 19° SW 13:53:58 19° SW 13:56:39 10° S
SJ 16-02 3.7 13:50:26 10° NNE 13:53:48 22° E 13:57:13 10° SE
Cosmos 1633 Rocket 3.0 13:52:35 39° NNW 13:54:09 72° WSW 13:58:38 10° SSE
Cosmos 1656 3.9 13:48:53 10° SW 13:54:10 44° WNW 13:59:30 10° N
Cosmos 1634 Rocket 4.0 13:50:39 20° NNW 13:55:12 84° WSW 14:01:34 10° SSE
Cosmos 2237 Rocket 3.9 13:51:39 10° WSW 13:56:32 28° S 14:01:25 10° ESE
CZ-4B R/B 2.8 13:54:31 19° N 13:57:18 65° WNW 14:01:14 10° SSW
Cosmos 968 Rocket 4.1 13:55:37 31° W 13:57:37 45° SW 14:02:42 10° SSE
Cosmos 1833 Rocket 4.4 13:52:52 10° NNE 13:57:42 30° ENE 14:02:34 10° SE
CZ-4C R/B 3.3 13:54:34 10° SSE 13:58:20 72° ENE 14:00:06 29° N
Cosmos 1867 3.7 13:54:23 10° WSW 13:59:34 47° NW 14:04:45 10° NNE
PAYLOAD B 4.3 13:54:18 10° NNE 13:59:55 81° ESE 14:05:33 10° SSW
SAR-Lupe-4 3.5 13:56:31 10° SSE 14:00:12 70° WSW 14:01:09 46° NW
Cosmos 2026 Rocket 4.2 13:56:22 10° SSW 14:02:12 46° W 14:06:10 20° NNW
Cosmos 1437 2.9 14:06:39 49° WSW 14:06:46 50° WSW 14:09:54 10° S
USA 229 DEB 4.1 14:00:59 10° WSW 14:07:24 39° NW 14:13:32 10° NNE
USA 229 4.1 14:01:03 10° WSW 14:07:29 39° NW 14:13:37 10° NNE
SWARM A 4.4 14:05:49 20° N 14:08:04 78° E 14:11:33 10° S
Sich 1 3.6 14:07:57 34° WNW 14:09:03 40° WSW 14:13:13 10° S
Cosmos 1812 3.3 14:05:52 10° SSW 14:09:34 37° W 14:09:51 37° WNW
Cosmos 1655 Rocket 4.0 14:04:00 10° SSW 14:10:22 68° W 14:16:37 10° N
GEOS 3 Rocket 4.2 14:05:46 10° E 14:11:02 59° SSE 14:16:16 10° WSW
Meteor PRIRODA 3.6 14:08:01 10° N 14:11:50 69° WNW 14:15:41 10° SSW
Cosmos 158 Rocket 3.8 14:07:45 10° SW 14:12:38 57° WNW 14:17:27 10° NNE
NOSS 3-1 (A) 3.7 14:06:48 10° WSW 14:13:24 48° NW 14:19:03 10° NNE
NOSS 3-4 (A) 4.1 14:09:57 17° W 14:16:13 69° S 14:23:22 10° E
NOSS 3-4 (C) 4.1 14:10:03 17° W 14:16:19 70° S 14:23:28 10° E
Cosmos 2322 Rocket 2.8 14:11:11 10° SW 14:16:56 59° SE 14:22:38 10° ENE
Cosmos 1697 Rocket 2.9 14:12:34 10° SW 14:18:00 47° WNW 14:23:24 10° N
Cosmos 1484 Rocket 2.7 14:14:15 10° NNE 14:18:06 90° ESE 14:22:05 10° SSW
Meteor 1-27 Rocket 4.3 14:13:37 10° SSW 14:19:04 40° W 14:24:23 11° NNW
Landsat 5 3.4 14:15:58 10° SSE 14:20:06 82° ENE 14:23:21 15° NNW
FENGYUN 3A 4.0 14:15:11 10° NNE 14:20:40 72° ESE 14:26:12 10° SSW
Okean 1 3.4 14:17:44 10° SSW 14:21:55 83° ESE 14:26:00 10° NNE
CZ-4B R/B 4.2 14:19:31 17° NNW 14:22:18 43° W 14:26:24 10° SSW
Genesis I 3.3 14:21:43 15° WSW 14:24:53 78° SSE 14:28:50 10° ENE
SL-16 R/B 3.7 14:20:20 10° WSW 14:25:15 29° S 14:30:13 10° SE
Cosmos 1777 Rocket 4.1 14:22:54 24° NW 14:26:08 66° SW 14:31:25 10° SSE
ATLAS CENTAUR R/B 1.7 14:27:22 31° NNW 14:27:56 36° N 14:29:55 10° E
Cosmos 1633 3.3 14:27:54 29° WNW 14:29:00 36° WSW 14:32:30 10° S
ERBS 4.2 14:28:21 16° NNW 14:30:09 23° NNE 14:32:57 10° E
SL-16 R/B 2.7 14:24:06 10° SSE 14:30:15 58° WSW 14:35:04 17° NW
Cosmos 2369 4.2 14:26:09 10° SW 14:31:27 38° WNW 14:36:41 10° N
Cosmos 909 Rocket 4.4 14:28:30 19° W 14:33:21 60° SSW 14:39:36 10° ESE
COSMOS 2428 4.2 14:30:06 10° SW 14:35:26 36° SSE 14:40:46 10° E
USA 81 4.5 14:30:37 10° SSW 14:35:37 41° W 14:40:35 10° NNW
Cosmos 1048 Rocket 4.2 14:31:02 10° SSW 14:36:30 79° SE 14:41:50 10° NE
Cosmos 2219 Rocket 3.7 14:31:18 10° SW 14:36:33 35° SSE 14:41:49 10° E
Meteor 2-13 Rocket 4.5 14:33:12 10° SSW 14:39:14 58° W 14:45:15 10° N
METEOR-M 4.1 14:36:51 10° NNE 14:42:17 82° WNW 14:47:46 10° SSW
SL-08 R/B 3.5 14:38:37 10° SSE 14:43:34 64° WSW 14:48:27 10° NW
H-2A R/B 4.2 14:43:58 16° W 14:43:58 16° W 14:46:24 10° SW
NOAA 6 4.0 14:38:34 10° NNE 14:43:49 78° WNW 14:49:06 10° SSW
H-2A R/B 2.8 14:42:45 10° S 14:46:53 37° WSW 14:49:36 18° WNW
NOSS 3-1 (C) 4.3 14:41:58 10° WSW 14:47:19 26° WNW 14:52:06 10° N
Cosmos 2360 Rocket 2.9 14:42:46 10° SW 14:48:27 56° SE 14:54:03 10° ENE
Cosmos 2221 Rocket 3.6 14:44:13 10° SSW 14:48:51 70° W 14:53:22 10° N
CZ-4B R/B 3.1 14:44:39 10° N 14:49:59 65° WNW 14:55:23 10° SSW
Cosmos 1933 Rocket 3.8 14:46:11 13° NW 14:50:03 52° WSW 14:54:27 10° S
IRS-1C Rocket 4.3 14:45:09 10° NNE 14:50:30 78° ESE 14:55:55 10° SSW
Cosmos 1703 Rocket 4.3 14:48:11 10° SSW 14:52:18 34° W 14:56:24 10° NNW
Cosmos 1898 Rocket 3.9 14:47:57 10° NNW 14:53:17 68° ENE 14:58:41 10° SE
Cosmos 1980 Rocket 2.5 14:48:27 10° SW 14:53:52 45° WNW 14:59:13 10° N
ALOS 2.2 14:49:13 10° N 14:53:58 74° WNW 14:58:45 10° SSW
Cosmos 468 4.5 14:50:08 10° SW 14:55:31 76° WNW 15:00:49 10° NNE
Cosmos 1602 4.4 14:52:41 10° N 14:56:36 60° E 15:00:32 10° SSE
Cosmos 2082 Rocket 3.2 14:51:19 10° N 14:56:46 48° ENE 15:02:13 10° SE
ATLAS 2AS CENTAUR R/B 2.8 14:51:01 10° WSW 14:57:16 71° SSE 15:03:53 10° E
Cosmos 1937 Rocket 4.1 14:52:40 10° N 14:57:45 57° ENE 15:02:56 10° SE
Okean O Rocket 1.7 14:54:22 10° N 14:58:45 54° WNW 15:03:11 10° SSW
Helios 1A Rocket 3.4 14:57:21 10° NNW 15:01:20 39° W 15:05:22 10° SSW
Meteor 1-19 Rocket 4.2 14:56:38 10° SSW 15:02:11 66° W 15:07:38 10° N
CZ-2C R/B 3.5 14:58:20 10° NW 15:02:42 26° W 15:07:02 10° SSW
SL-24 DEB 4.5 14:58:59 10° S 15:03:34 50° WSW 15:08:05 10° NNW
Cosmos 1733 Rocket 4.4 15:01:04 10° NNE 15:05:19 44° E 15:09:34 10° SSE
H-2A R/B 3.9 15:01:41 10° NE 15:05:31 49° ESE 15:09:21 10° S
CZ-4B R/B 1.4 15:03:32 10° S 15:06:45 55° WSW 15:10:02 10° NNW
APEX 4.4 15:01:31 10° SW 15:07:08 63° NW 15:13:52 10° NNE
SL-16 R/B 2.2 15:01:45 10° SW 15:07:31 80° NW 15:13:15 10° NNE
Cosmos 1674 Rocket 3.8 15:03:21 10° SSW 15:07:57 83° ESE 15:12:30 10° NNE
SJ-12 4.3 15:04:01 10° N 15:07:59 42° W 15:12:01 10° SSW
Cosmos 2266 Rocket 4.4 15:02:26 10° SSW 15:08:36 46° W 15:14:38 10° NNW
Cosmos 1174 4.2 15:05:53 11° NW 15:09:50 84° NE 15:15:11 10° SE
COSMOS 2406 3.3 15:05:38 10° NW 15:11:24 75° SW 15:17:12 10° SE
Meteor 2-19 Rocket 4.5 15:05:12 10° SSW 15:11:27 76° W 15:17:39 10° N
Okean 3 3.5 15:09:24 10° SSW 15:13:41 60° W 15:17:54 10° N
Cosmos 2098 Rocket 4.2 15:10:35 10° S 15:13:48 35° ESE 15:16:38 10° NE
Lacrosse 4 Rocket 1.6 15:13:22 10° SW 15:17:52 68° NW 15:22:22 10° NE
IDEFIX/ARIANE 42P 4.4 15:21:50 10° W 15:23:06 11° WSW 15:24:22 10° WSW
Cosmos 1745 Rocket 4.3 15:16:46 10° SSW 15:23:16 79° ESE 15:29:37 10° NNE
Radarsat Rocket 4.2 15:18:15 10° N 15:24:15 51° WNW 15:30:01 10° SSW
Meteor 1-20 Rocket 4.3 15:19:57 10° NNW 15:25:48 71° WSW 15:31:45 10° SSE
Cosmos 1869 Rocket 3.7 15:23:08 10° NNW 15:27:31 56° WSW 15:31:55 10° S
RESURS DK-1 4.3 15:24:39 10° SW 15:28:00 22° S 15:31:21 10° SE
Cosmos 494 Rocket 4.0 15:23:03 10° SSW 15:28:23 82° WNW 15:33:37 10° NNE
Okean 1-7 4.3 15:25:17 10° SW 15:28:36 21° W 15:31:55 10° NW
Cosmos 2333 Rocket 3.2 15:23:46 10° SW 15:29:26 50° SE 15:35:04 10° ENE
SJ 16-02 1.4 15:27:28 10° NNW 15:31:56 81° WSW 15:36:26 10° SSE
Meteor 1-28 Rocket 3.3 15:28:16 10° S 15:32:01 55° WSW 15:35:44 10° NW
Cosmos 1515 3.9 15:30:03 10° SSW 15:33:51 50° W 15:37:35 10° N
Cosmos 1689 Rocket 2.7 15:31:31 10° S 15:34:28 40° WSW 15:37:25 10° NW
Envisat 3.7 15:30:34 10° NE 15:35:38 60° ESE 15:40:45 10° SSW
COSMOS 2455 3.0 15:31:41 10° SW 15:37:48 85° SE 15:43:54 10° NE
SL-08 R/B 4.5 15:32:57 10° SSW 15:39:11 73° W 15:45:24 10° N
Cosmos 1833 Rocket 2.8 15:35:27 10° NW 15:41:09 84° SW 15:46:55 10° SE
CZ-4C R/B 3.5 15:33:55 10° NNW 15:41:20 55° NE 15:47:40 10° ESE
Cosmos 2237 Rocket 3.5 15:36:45 10° SW 15:42:05 38° SSE 15:47:22 10° E
Meteor 2-4 Rocket 4.0 15:36:17 10° SSW 15:42:05 54° W 15:47:41 10° N
SMAP 3.1 15:39:26 10° N 15:44:09 65° WNW 15:48:54 10° SSW
Meteor 1-13 Rocket 4.3 15:40:01 10° SSW 15:45:37 59° W 15:51:05 10° N
CORIOLIS 4.2 15:42:17 10° N 15:47:46 73° WNW 15:53:21 10° SSW
